Torna al catalogo

COSMOS 1275 DEB

AttivoPO
NORAD 39951·DEBRIS·🇷🇺 Russia

Lanciato Jun 4, 1981 da Plesetsk Cosmodrome

Loading…

Prossimi Passaggi (prossime 24 ore)

TLE

In scadenzaSource: Space-Track

Epoca: Sep 11, 2026, 01:48 UTC

1 39951U 81053NM  26254.07545848  .00002078  00000-0  94334-3 0  9997
2 39951  82.8219 126.6297 0056423 297.6167  61.9292 14.20623695629352

Traccia COSMOS 1275 DEB in tempo reale con AllMySat

Download on the App Store